sat.trackr.live / text

‹ back to catalog

DIRECTV 11

NORAD 32729 · 2008-013A

PAYLOAD ACTIVE UNKNOWN

§ Identity

Operator
Country
US
Launch date
2008-03-19
Launch site
SEAL
Launch vehicle
Mass (kg)
RCS (m²)
6.32

Purposes: comms

External: N2YO · Heavens-Above · Gunter

§ Orbital elements

Epoch: 2026-09-10T04:50:25.067328Z

Period
1,436.09 min
Inclination
0.0176°
Eccentricity
0.0000124
Mean motion
1.00272136 rev/d
Perigee alt
35,786.0 km
Apogee alt
35,787.0 km
Semi-major
42,164.6 km
B*
0.0000e+0
RAAN
344.7857°
Arg perigee
82.6121°
Mean anomaly
255.2598°
Rev number
4,644

§ Raw data

DIRECTV 111 32729U 08013A   26253.20167902 -.00000146  00000+0  00000+0 0  99902 32729   0.0176 344.7857 0000124  82.6121 255.2598  1.00272136 46440

JSON: /api/v1/satellites/32729 · /tle

For live sub-satellite position, see the globe view (requires WebGL).

§ Visibility from observer

Set your observer location to see the next 7 days of passes ≥ 10°. The values pass through the URL so the page stays shareable.

No JS? Fill the form by hand. The geolocation button needs JavaScript.